Home > Weather > Yarmouth County > Past weeks

Flag for Canada Past Weather in Yarmouth County, Nova Scotia, Canada — Yesterday and Last 2 Weeks

Now
64 °F

Fog.


Feels Like: 64 °F
Forecast: 62 / 71 °F
Wind: 3 mph from Southeast

Location: Yarmouth

Current Time: Jul 26, 2016 at 1:03:53 PM

Latest Report: Jul 26, 2016 at 12:00 PM


Visibility: 1 mi

Pressure: 29.75 "Hg

Humidity: 100%

Dew Point: 64 °F

Location of Yarmouth CountyLocation

Past Weather in Yarmouth County — Graph

°F

Yarmouth County Temperature Yesterday

Maximum temperature yesterday: 79 °F (at 11:00 AM)
Minimum temperature yesterday: 57 °F (at 6:00 AM)
Average temperature yesterday: 67 °F

High & Low Weather Summary for the Past Weeks

 TemperatureHumidityPressure
High79 °F (Jul 25, 11:00 AM)100% (Jul 12, 7:00 AM)30.16 "Hg (Jul 12, 7:00 AM)
Low54 °F (Jul 12, 1:00 AM)57% (Jul 19, 3:00 PM)29.68 "Hg (Jul 23, 5:00 AM)
Average64 °F89%29.94 "Hg
* Reported Jul 11 12:00 PM — Jul 26 12:00 PM, Yarmouth County, Weather by CustomWeather, © 2016

Note: Actual official high and low records may vary slightly from our data, if they occured in-between our weather recording intervals... More about our weather records

Advertising

Yarmouth County Weather History for the Previous 24 Hours

Scroll right to see more
 ConditionsComfort  
Time TempWeatherWind HumidityBarometerVisibility
12:00 PM
Tue, Jul 26
64 °FFog.3 mph100%29.75 "Hg1 mi
11:45 AM66 °FFog.5 mph100%29.75 "Hg1 mi
11:00 AM64 °FDrizzle. Fog.6 mph100%29.74 "Hg0 mi
10:00 AM64 °FDrizzle. Fog.8 mph100%29.75 "Hg1 mi
9:00 AM64 °FFog.8 mph100%29.75 "Hg0 mi
8:00 AM64 °FFog.7 mph100%29.77 "Hg0 mi
7:00 AM64 °FFog.8 mph100%29.76 "Hg1 mi
6:00 AM63 °FThunderstorms. Fog.7 mph100%29.77 "Hg2 mi
5:00 AM63 °FSprinkles. Fog.7 mph100%29.78 "Hg1 mi
4:00 AM64 °FFog.7 mph100%29.79 "Hg2 mi
3:00 AM63 °FFog.9 mph100%29.81 "Hg2 mi
2:00 AM63 °FFog.12 mph100%29.82 "Hg1 mi
1:52 AM63 °FFog.10 mph100%29.81 "Hg1 mi
1:00 AM63 °FFog.9 mph100%29.82 "Hg0 mi
12:00 AM63 °FFog.9 mph100%29.84 "Hg0 mi
11:00 PM
Mon, Jul 25
63 °FFog.9 mph100%29.87 "Hg0 mi
10:00 PM63 °FPartly cloudy.9 mph100%29.87 "Hg9 mi
9:00 PM63 °FPartly sunny.6 mph94%29.87 "Hg15 mi
8:00 PM66 °FBroken clouds.6 mph88%29.88 "Hg15 mi
7:00 PM70 °FBroken clouds.8 mph83%29.89 "Hg15 mi
6:00 PM72 °FScattered clouds.7 mph78%29.90 "Hg15 mi
5:00 PM75 °FBroken clouds.8 mph65%29.91 "Hg15 mi
4:00 PM77 °FBroken clouds.8 mph61%29.91 "Hg15 mi
3:00 PM75 °FScattered clouds.10 mph65%29.92 "Hg15 mi
2:00 PM77 °FScattered clouds.9 mph65%29.93 "Hg15 mi
1:00 PM77 °FPassing clouds.8 mph69%29.94 "Hg15 mi
Weather by CustomWeather, © 2016

See weather overviewHow to use our weather pages